[[{"header":{"parameterUnit":"m.s-1","parameterCategory":1,"la1":30.2991,"la2":30.254,"lo1":-89.0895,"lo2":-89.0444,"dy":0.0017,"dx":0.0017,"nx":28,"ny":28,"refTime":"2024-08-11T09:00:00:Z","depth":0,"parameterNumber":2,"parameterNumberName":"U-component_of_WINDS"},"data":[0,0,0,0,0,0,0,0,0,0,0,0,0,0,0,0,0,0,0,0,0,0,0,0,0,0,0,0,0,0,0,0,0,0,0,0,0,0,0,0,0,0,0,0,0,0,0,0,0,0,0,0,0,0,0,0,0,0,3.1577,3.1578,0,3.1701,3.1703,3.1704,3.1668,3.1665,3.1663,3.166,3.1788,3.1794,3.1799,0,0,0,0,0,0,0,0,0,0,0,0,0,3.1306,3.1311,3.1576,3.1578,3.158,3.1701,3.1703,3.1705,3.1668,3.1665,3.1662,3.1659,3.1786,3.1793,3.18,0,0,0,0,0,0,0,0,0,0,0,0,0,3.1426,3.1313,3.1576,3.1576,3.1577,3.1701,3.1703,3.1705,3.1669,3.1665,3.1661,3.1657,3.1784,3.1792,3.1801,3.1932,0,0,3.1828,3.1831,0,0,0,0,0,0,0,0,3.1419,3.1436,3.1575,3.1576,3.1578,3.1665,3.1654,3.1781,3.167,3.1634,3.166,3.1656,3.175,3.1761,3.1793,3.1938,3.1944,3.1828,3.1834,3.1837,3.184,0,0,0,0,0,0,0,3.1411,3.1431,3.1626,3.1577,3.1579,3.1569,3.1582,3.1678,3.1712,3.1637,3.1635,3.165,3.175,3.1785,3.1796,3.1946,3.1828,3.1836,3.1841,3.1845,3.2203,3.2207,0,0,0,0,0,0,3.1402,3.1424,3.1622,3.163,3.1488,3.1578,3.1592,3.1641,3.1711,3.1718,3.1653,3.1648,3.1772,3.1786,3.1801,3.1958,3.1837,3.1845,3.1851,3.2199,3.2204,3.2209,0,0,0,0,0,0,3.1396,3.142,3.1617,3.1526,3.1551,3.1586,3.1642,3.1645,3.168,3.1723,3.1729,3.1682,3.177,3.1788,3.1899,3.1962,3.1849,3.1857,3.2194,3.22,3.2206,3.2274,0,0,0,0,0,0,3.1388,3.1418,3.1468,3.1528,3.1556,3.1714,3.1646,3.1651,3.1695,3.1689,3.1752,3.1759,3.1768,3.1887,3.1908,3.1972,3.1864,3.2188,3.2197,3.2204,3.2267,3.2282,3.2296,0,0,0,0,0,3.1379,3.1483,3.1471,3.1495,3.1619,3.1718,3.1734,3.1742,3.17,3.1751,3.1779,3.1757,3.1952,3.1898,3.1922,3.199,3.2184,3.2194,3.2204,3.226,3.2279,3.2295,0,0,0,0,0,0,3.143,3.1491,3.1478,3.1605,3.1656,3.1711,3.1776,3.1762,3.1827,3.1819,3.1826,3.1841,3.1954,3.1983,3.1923,3.212,3.2062,3.2077,3.2097,3.2115,3.2129,3.212,3.1871,0,0,0,0,0,3.1456,3.1531,3.158,3.1687,3.1713,3.174,3.1783,3.1785,3.1839,3.1861,3.1896,3.195,3.2022,3.207,3.214,3.2271,3.2283,3.2329,3.2343,3.2355,3.2368,3.2438,3.2458,3.224,3.224,3.224,0,0,3.1511,3.1553,3.16,3.1698,3.1738,3.1815,3.1759,3.1843,3.19,3.1874,3.198,3.2009,3.2068,3.2189,3.2245,3.2217,3.2431,3.2367,3.2376,3.2383,3.245,3.247,3.2489,3.2247,3.2246,3.2245,0,0,3.165,3.169,3.1782,3.1824,3.1885,3.1902,3.1924,3.1982,3.1999,3.2107,3.2088,3.2156,3.2282,3.2325,3.2363,3.2517,3.2499,3.254,3.2615,3.2684,3.2701,3.2716,3.277,3.279,3.2552,3.2552,3.2552,0,3.171,3.1825,3.1832,3.1918,3.1961,3.194,3.2033,3.2073,3.2154,3.2185,3.2152,3.2309,3.2348,3.2478,3.2516,3.2548,3.2573,3.2532,3.2698,3.2713,3.2727,3.2779,3.28,3.2557,3.2556,3.2556,3.2555,0,3.1896,3.1976,3.2044,3.2122,3.2173,3.2262,3.2282,3.2333,3.233,3.235,3.2459,3.2505,3.2583,3.2614,3.2612,3.2744,3.2725,3.2696,3.2637,3.2753,3.2801,3.2821,3.2563,3.2562,3.256,3.2559,0,0,3.2071,3.2151,3.2176,3.2211,3.2277,3.2339,3.2427,3.2503,3.2546,3.2602,3.2676,3.2782,3.2755,3.2798,3.2801,3.2861,3.2979,3.2824,3.2826,3.2851,3.3126,3.3148,3.3171,3.2968,3.2972,3.2975,3.3121,0,3.2215,3.237,3.2377,3.2518,3.2592,3.2572,3.2649,3.2697,3.2718,3.2784,3.2807,3.2882,3.2841,3.2867,3.2925,3.2952,3.3035,3.2942,3.3036,3.3039,3.3021,3.3196,3.3219,3.3355,3.314,3.3143,3.3146,0,3.2404,3.2465,3.2613,3.2667,3.2699,3.2767,3.2837,3.29,3.2954,3.2965,3.3013,3.3007,3.3097,3.3036,3.3159,3.3096,3.3135,3.3154,3.3159,3.3168,3.3099,3.3209,3.3399,3.3419,3.3176,3.3174,3.3171,0,3.2516,3.2636,3.2739,3.277,3.2836,3.2885,3.2914,3.2965,3.301,3.307,3.3099,3.317,3.3209,3.3264,3.3277,3.3231,3.3399,3.334,3.3411,3.341,3.3447,3.3444,3.3645,3.3473,3.3473,3.3472,3.3472,0,3.2676,3.2766,3.279,3.2854,3.2955,3.2963,3.3063,3.3089,3.3134,3.3202,3.319,3.3254,3.3267,3.3334,3.3345,3.3445,3.3463,3.3474,3.3475,3.3475,3.3473,3.35,3.349,3.3478,3.3476,3.3475,3.3474,0,3.2818,3.2838,3.2949,3.3002,3.3018,3.309,3.3135,3.3196,3.3215,3.3301,3.3322,3.3352,3.343,3.3449,3.3542,3.3549,3.3667,3.366,3.3648,3.3648,3.3717,3.371,3.3942,3.3972,3.3781,3.3782,3.3784,0,3.2918,3.2988,3.3048,3.3092,3.3124,3.3196,3.3242,3.3252,3.33,3.3366,3.3419,3.3495,3.3556,3.3682,3.3712,3.3783,3.3777,3.3853,3.3788,3.3784,3.3777,3.3773,3.3779,3.3866,3.3868,3.3869,3.3871,0,3.3094,3.31,3.3166,3.3236,3.329,3.3345,3.3397,3.3435,3.3452,3.3506,3.3585,3.3633,3.3727,3.3803,3.3874,3.3904,3.3891,3.3891,3.3911,3.3911,3.3901,3.3906,3.3682,3.3886,3.3884,3.3883,3.3882,3.3882,3.3219,3.3279,3.333,3.3404,3.3444,3.3493,3.3552,3.3579,3.3645,3.3722,3.3724,3.381,3.3861,3.3955,3.3989,3.4057,3.4033,3.4063,3.407,3.4077,3.4083,3.3891,3.407,3.4069,3.4069,3.4069,3.4068,0,3.3393,3.3425,3.3492,3.3566,3.3623,3.3605,3.3662,3.3711,3.3787,3.3836,3.3896,3.3987,3.406,3.4096,3.4168,3.4215,3.421,3.4233,3.423,3.4237,3.41,3.4075,3.4236,3.4236,3.4236,3.4236,3.4236,3.4236,3.3491,3.3591,3.3603,3.3723,3.3754,3.3838,3.3872,3.3917,3.3956,3.4058,3.4118,3.414,3.4184,3.4259,3.4325,3.4334,3.436,3.4387,3.4392,3.4264,3.4247,3.423,3.4207,3.4393,3.4393,3.4523,3.4524,3.4525]},{"header":{"parameterUnit":"m.s-1","parameterCategory":1,"la1":30.2991,"la2":30.254,"lo1":-89.0895,"lo2":-89.0444,"dy":0.0017,"dx":0.0017,"nx":28,"ny":28,"refTime":"2024-08-11T09:00:00:Z","depth":0,"parameterNumber":3,"parameterNumberName":"V-component_of_WINDS"},"data":[0,0,0,0,0,0,0,0,0,0,0,0,0,0,0,0,0,0,0,0,0,0,0,0,0,0,0,0,0,0,0,0,0,0,0,0,0,0,0,0,0,0,0,0,0,0,0,0,0,0,0,0,0,0,0,0,0,0,-0.4949,-0.4949,0,-0.4991,-0.4992,-0.4992,-0.5014,-0.5014,-0.5014,-0.5014,-0.5058,-0.5059,-0.506,0,0,0,0,0,0,0,0,0,0,0,0,0,-0.4888,-0.4889,-0.4949,-0.4949,-0.495,-0.4991,-0.4992,-0.4992,-0.5014,-0.5014,-0.5014,-0.5014,-0.5058,-0.5059,-0.506,0,0,0,0,0,0,0,0,0,0,0,0,0,-0.4921,-0.4889,-0.4949,-0.4966,-0.4968,-0.4991,-0.4992,-0.4993,-0.5014,-0.5014,-0.5014,-0.5014,-0.5057,-0.5059,-0.5061,-0.5071,0,0,-0.5066,-0.5067,0,0,0,0,0,0,0,0,-0.4919,-0.4923,-0.4963,-0.4964,-0.4967,-0.4997,-0.4986,-0.5019,-0.5014,-0.4996,-0.5014,-0.5014,-0.5038,-0.5041,-0.5049,-0.5073,-0.5075,-0.5066,-0.5067,-0.5068,-0.5068,0,0,0,0,0,0,0,-0.4916,-0.4921,-0.4966,-0.4963,-0.4966,-0.4972,-0.4976,-0.4993,-0.5016,-0.4998,-0.5,-0.5004,-0.5039,-0.5047,-0.505,-0.5075,-0.5066,-0.5067,-0.5069,-0.5069,-0.5111,-0.5111,0,0,0,0,0,0,-0.4911,-0.4919,-0.4964,-0.4967,-0.4942,-0.4973,-0.4978,-0.4988,-0.5016,-0.5021,-0.5004,-0.5005,-0.5044,-0.5048,-0.5052,-0.5066,-0.5068,-0.5069,-0.507,-0.5111,-0.5111,-0.5111,0,0,0,0,0,0,-0.491,-0.4915,-0.4963,-0.4943,-0.495,-0.4974,-0.4984,-0.4988,-0.4997,-0.5021,-0.5026,-0.5008,-0.5045,-0.5049,-0.5066,-0.5068,-0.507,-0.5072,-0.5111,-0.5111,-0.5111,-0.5095,0,0,0,0,0,0,-0.4908,-0.4914,-0.4918,-0.4943,-0.4951,-0.4975,-0.4984,-0.4989,-0.5,-0.5001,-0.5026,-0.503,-0.5045,-0.5063,-0.5068,-0.507,-0.5073,-0.511,-0.5111,-0.5111,-0.5095,-0.5094,-0.5093,0,0,0,0,0,-0.4906,-0.4912,-0.4918,-0.4923,-0.4956,-0.4976,-0.498,-0.4997,-0.5,-0.5004,-0.502,-0.5029,-0.5067,-0.5065,-0.507,-0.5073,-0.511,-0.5111,-0.5111,-0.5095,-0.5094,-0.5093,0,0,0,0,0,0,-0.4886,-0.4915,-0.4923,-0.4937,-0.4954,-0.4979,-0.4985,-0.4995,-0.5011,-0.5012,-0.5032,-0.5037,-0.5052,-0.5065,-0.5061,-0.5085,-0.509,-0.5091,-0.5076,-0.5076,-0.5075,-0.5071,-0.5075,0,0,0,0,0,-0.4883,-0.4896,-0.4921,-0.4932,-0.494,-0.4961,-0.497,-0.4981,-0.5,-0.5007,-0.5024,-0.5041,-0.5057,-0.5067,-0.5083,-0.5097,-0.5103,-0.5102,-0.5101,-0.51,-0.5101,-0.511,-0.511,-0.5111,-0.5111,-0.5111,0,0,-0.4878,-0.4895,-0.4902,-0.4928,-0.4942,-0.4956,-0.4967,-0.498,-0.4991,-0.5009,-0.5026,-0.5039,-0.506,-0.5075,-0.5083,-0.5086,-0.5102,-0.5101,-0.51,-0.5101,-0.511,-0.511,-0.511,-0.5111,-0.5111,-0.5111,0,0,-0.4874,-0.4889,-0.4899,-0.4914,-0.4935,-0.4949,-0.4952,-0.4976,-0.4986,-0.5003,-0.5017,-0.503,-0.5057,-0.5072,-0.5083,-0.5087,-0.5096,-0.5091,-0.5087,-0.5095,-0.5095,-0.5095,-0.5097,-0.5098,-0.5092,-0.5092,-0.5092,0,-0.4865,-0.4886,-0.4903,-0.4917,-0.4928,-0.4945,-0.4957,-0.497,-0.4995,-0.5003,-0.5006,-0.5041,-0.5056,-0.5076,-0.5077,-0.5085,-0.5089,-0.5088,-0.5094,-0.5094,-0.5094,-0.5096,-0.5097,-0.5091,-0.5091,-0.5091,-0.5091,0,-0.4873,-0.4887,-0.4893,-0.4918,-0.493,-0.4942,-0.4962,-0.4972,-0.4983,-0.4997,-0.5015,-0.5034,-0.5055,-0.5061,-0.5071,-0.5082,-0.5083,-0.509,-0.5095,-0.5093,-0.5095,-0.5096,-0.509,-0.509,-0.5091,-0.5091,0,0,-0.4857,-0.4892,-0.4894,-0.4906,-0.4932,-0.4943,-0.4957,-0.4977,-0.4986,-0.5003,-0.5015,-0.5038,-0.5045,-0.5057,-0.507,-0.5077,-0.508,-0.5083,-0.5084,-0.5082,-0.5094,-0.5089,-0.5089,-0.5087,-0.5087,-0.5088,-0.5093,0,-0.4858,-0.4882,-0.4899,-0.4917,-0.4931,-0.4949,-0.496,-0.4978,-0.4992,-0.5006,-0.5022,-0.5038,-0.5045,-0.5053,-0.5061,-0.5078,-0.5083,-0.5078,-0.5099,-0.5099,-0.5093,-0.5091,-0.5085,-0.5089,-0.5093,-0.5094,-0.5094,0,-0.4861,-0.4879,-0.4898,-0.4923,-0.4929,-0.494,-0.496,-0.4973,-0.4994,-0.5004,-0.5018,-0.5031,-0.5047,-0.5051,-0.5073,-0.507,-0.508,-0.5089,-0.509,-0.5092,-0.5096,-0.5093,-0.509,-0.5091,-0.5095,-0.5095,-0.5095,0,-0.4848,-0.4876,-0.4892,-0.4901,-0.4931,-0.4938,-0.495,-0.4971,-0.4982,-0.5001,-0.5008,-0.5028,-0.5039,-0.5054,-0.5073,-0.5074,-0.5093,-0.5099,-0.5102,-0.5102,-0.5105,-0.5105,-0.5104,-0.5112,-0.5112,-0.5112,-0.5112,0,-0.4847,-0.4858,-0.4886,-0.4896,-0.4909,-0.4929,-0.4942,-0.4956,-0.4975,-0.4988,-0.5004,-0.5016,-0.504,-0.5055,-0.507,-0.5087,-0.5092,-0.51,-0.5104,-0.5099,-0.5098,-0.5105,-0.5105,-0.5112,-0.5112,-0.5112,-0.5112,0,-0.4834,-0.4854,-0.4872,-0.4898,-0.4906,-0.4914,-0.4938,-0.4948,-0.4963,-0.4979,-0.4985,-0.5009,-0.5028,-0.5048,-0.5073,-0.5083,-0.5099,-0.5105,-0.5092,-0.5094,-0.5097,-0.5096,-0.5101,-0.5102,-0.5109,-0.5109,-0.5109,0,-0.4832,-0.4841,-0.4869,-0.4879,-0.4891,-0.4907,-0.4919,-0.4939,-0.4951,-0.4976,-0.4983,-0.5004,-0.5021,-0.505,-0.507,-0.509,-0.5096,-0.5097,-0.5099,-0.5094,-0.5097,-0.5096,-0.5097,-0.5095,-0.5095,-0.5095,-0.5095,0,-0.4826,-0.4835,-0.4851,-0.4871,-0.4885,-0.4902,-0.4919,-0.4927,-0.4951,-0.4964,-0.4983,-0.4996,-0.5023,-0.5043,-0.5066,-0.508,-0.5092,-0.5094,-0.5096,-0.509,-0.5083,-0.5087,-0.509,-0.5094,-0.5094,-0.5094,-0.5094,-0.5094,-0.4818,-0.4828,-0.4849,-0.4867,-0.4882,-0.4898,-0.491,-0.4927,-0.4943,-0.4966,-0.4978,-0.4997,-0.5019,-0.5051,-0.5064,-0.5081,-0.5084,-0.5087,-0.5087,-0.5088,-0.5086,-0.5081,-0.5085,-0.5085,-0.5085,-0.5085,-0.5085,0,-0.4813,-0.4828,-0.4844,-0.4868,-0.4883,-0.4893,-0.4913,-0.4925,-0.4942,-0.4961,-0.4977,-0.5,-0.502,-0.5042,-0.5064,-0.5073,-0.5079,-0.5078,-0.5077,-0.508,-0.5082,-0.5078,-0.5072,-0.5072,-0.5072,-0.5072,-0.5072,-0.5072,-0.4812,-0.4828,-0.4841,-0.4865,-0.488,-0.4899,-0.491,-0.4925,-0.4941,-0.4966,-0.4982,-0.4996,-0.5017,-0.5041,-0.506,-0.5066,-0.5073,-0.507,-0.5078,-0.5079,-0.508,-0.5081,-0.5077,-0.5071,-0.5071,-0.5075,-0.5075,-0.5075]}]]